DW9680 Weather Reports


Display with metric or nautical units.
time (UTC)temp
F
wind
direction
speed
MPH
gust
MPH
rain 1hr
in
rain 24hr
in
rain mn
in
humidity
%
barometer
mb
20260503204557 85 37 0.0 6.0 0.00 0.00 0.00 41 1009.1
20260503203057 84 359 1.0 7.0 0.00 0.00 0.00 38 1009.2
20260503201552 83 331 3.0 8.0 0.00 0.00 0.00 37 1009.5
20260503200053 83 360 0.0 7.0 0.00 0.00 0.00 44 1009.7
20260503194554 82 309 2.0 7.0 0.00 0.00 0.00 43 1009.9
20260503193043 82 12 0.0 6.0 0.00 0.00 0.00 44 1010.0
20260503191537 81 346 2.0 5.0 0.00 0.00 0.00 45 1010.1
20260503190032 80 256 0.0 6.0 0.00 0.00 0.00 45 1010.3
20260503184528 79 316 2.0 8.0 0.00 0.00 0.00 50 1010.5
20260503183025 78 24 3.0 9.0 0.00 0.00 0.00 47 1010.6
20260503181520 77 347 3.0 7.0 0.00 0.00 0.00 48 1010.7
20260503180016 76 37 1.0 7.0 0.00 0.00 0.00 52 1010.8
20260503174511 75 44 0.0 9.0 0.00 0.00 0.00 55 1010.9
20260503173008 74 27 2.0 8.0 0.00 0.00 0.00 55 1010.9
20260503171503 73 13 5.0 8.0 0.00 0.00 0.00 60 1011.1
20260503110106 52 106 0.0 0.0 0.00 0.00 0.00 92 1011.7
20260503081536 54 106 0.0 0.0 0.00 0.00 0.00 90 1012.3
20260503071532 55 106 2.0 5.0 0.00 0.00 0.00 89 1012.0
20260503054529 61 106 0.0 0.0 0.00 0.00 0.00 83 1012.3
20260503053022 61 106 3.0 5.0 0.00 0.00 0.00 83 1012.3
20260503051521 61 346 0.0 2.0 0.00 0.00 0.00 83 1011.9
20260503050033 61 294 0.0 0.0 0.00 0.00 0.00 82 1012.1
20260503044521 61 294 0.0 0.0 0.00 0.00 0.00 82 1012.0
20260503043020 61 294 0.0 2.0 0.00 0.00 0.00 82 1012.1
20260503041529 61 294 0.0 0.0 0.00 0.00 0.00 82 1012.4
20260503040019 61 294 0.0 0.0 0.00 0.00 0.00 81 1012.2
20260503034519 61 294 0.0 0.0 0.00 0.00 0.00 80 1012.1
20260503033018 62 294 0.0 0.0 0.00 0.00 0.00 80 1011.9
20260503031519 63 294 0.0 0.0 0.00 0.00 0.00 79 1011.9
20260503030022 63 294 0.0 1.0 0.00 0.00 0.00 77 1012.1
20260503024517 64 296 0.0 0.0 0.00 0.00 0.00 76 1012.2
20260503023016 65 296 0.0 3.0 0.00 0.00 0.00 74 1012.4
20260503021521 66 296 1.0 6.0 0.00 0.00 0.00 73 1012.4
20260503020017 67 102 0.0 3.0 0.00 0.00 0.00 73 1012.2
20260503014515 68 100 0.0 0.0 0.00 0.00 0.00 72 1011.4
20260503013014 68 100 0.0 2.0 0.00 0.00 0.00 70 1011.4
20260503011513 69 34 0.0 0.0 0.00 0.00 0.00 70 1011.4
20260503010013 69 34 0.0 0.0 0.00 0.00 0.00 69 1011.2
20260503004513 70 35 0.0 3.0 0.00 0.00 0.00 67 1011.0
20260503003012 70 35 0.0 0.0 0.00 0.00 0.00 64 1010.9
20260503001512 70 35 0.0 0.0 0.00 0.00 0.00 63 1010.9
20260503000008 70 35 0.0 0.0 0.00 0.00 0.00 63 1011.0
20260502234506 69 35 0.0 3.0 0.00 0.00 0.00 63 1011.2
20260502233003 69 35 0.0 4.0 0.00 0.00 0.00 64 1011.4
20260502231601 69 35 1.0 4.0 0.00 0.00 0.00 64 1011.7
20260502230058 69 34 0.0 4.0 0.00 0.00 0.00 65 1012.0
20260502224558 68 34 1.0 6.0 0.00 0.00 0.00 64 1012.1
20260502223052 68 285 0.0 6.0 0.00 0.00 0.00 65 1012.5
20260502221548 67 343 0.0 9.0 0.00 0.00 0.00 66 1012.5
20260502220046 67 273 1.0 7.0 0.00 0.00 0.00 68 1012.8
20260502214542 66 20 0.0 7.0 0.00 0.00 0.00 71 1012.9
20260502213039 65 8 2.0 7.0 0.00 0.00 0.00 70 1013.1
20260502211537 64 28 2.0 6.0 0.00 0.00 0.00 69 1013.3
20260502210033 64 288 2.0 8.0 0.00 0.00 0.00 70 1013.5